Content
SEND FEEDBACK

Daily
Averages
Monthly
Summary
France

OISSEL, FRANCE


Home > Europe > France
Elevation: 515 feet     Latitude: 49 22N     Longitude: 001 10E

WEATHER
 
SELECT A DAY
Number of Records: 184,687;   Date Range: 7/1/96 - 12/24/14
 
SHARE

PRINT THIS DATA

[ ← Previous Day ]
WEATHER ALMANAC - JANUARY 29, 2013
[ Next Day → ]
[ °C ]   °F
Weather ElementAverageHighLow
Temperature52.1 °F55.4 °F (4:00 pm)50 °F (12:30 am)
Dewpoint49.2 °F52 °F (7:00 pm)46.4 °F (12:30 am)
Humidity90 %94 % (3:00 am)82 % (5:00 pm)
Barometer29.87 in29.91 in (7:00 pm)29.83 in (7:00 am)
Wind Speed18.7 mph24.2 mph (10:30 pm)
Wind Gust31.1 mph (9:00 pm)
Weather ElementAverage
Visibility6.3 mi
Wind DirectionSW (227.8 °)

Weather ElementTotal
Precipitation---
Heating Degree Days12.3 (Base 65)
Growing Degree Days2.7 (Base 50)
Averaged from 51 records on January 29, 2013
WEATHER CONDITIONS BREAKOUT
WIND DIRECTION BREAKOUT
WEATHER BY HOUR - JANUARY 29, 2013
[ °C ]   °F
Local TimeTemperatureDewpointHumidityBarometerVisibilityWind DirectionWind SpeedGust SpeedPrecipitationEventsConditions
12:30 AM50.0 °F46.4 °F87 %29.86 in6.2 miWSW (240°)17.3 mphLight Drizzle
1:00 AM50.0 °F47.0 °F85 %29.88 in31.0 miWSW (240°)18.4 mphClear
1:00 AM50.0 °F46.4 °F87 %29.86 in6.2 miWSW (240°)19.6 mphOvercast
1:30 AM50.0 °F46.4 °F87 %29.86 in6.2 miWSW (240°)18.4 mphOvercast
2:00 AM50.0 °F46.4 °F87 %29.86 in6.2 miWSW (240°)19.6 mphOvercast
2:30 AM50.0 °F46.4 °F87 %29.86 in3.7 miWSW (240°)18.4 mphRainLight Rain
3:00 AM50.0 °F48.2 °F94 %29.89 in5.0 miSW (230°)18.4 mphRainRain
3:30 AM50.0 °F48.2 °F94 %29.89 in6.2 miSW (230°)18.4 mphRainLight Rain
4:00 AM50.0 °F48.2 °F94 %29.86 in5.6 miSW (230°)18.4 mphRainLight Rain
4:30 AM50.0 °F48.2 °F94 %29.86 in6.2 miSW (220°)18.4 mphRainLight Rain
5:00 AM50.0 °F48.2 °F94 %29.86 in6.2 miSW (220°)17.3 mphRainLight Rain
5:30 AM50.0 °F48.2 °F94 %29.86 in3.1 miSW (220°)18.4 mphRainLight Rain
6:00 AM50.0 °F48.2 °F94 %29.86 inSW (220°)17.3 mphRainLight Rain
6:30 AM50.0 °F48.2 °F94 %29.86 in3.1 miSW (230°)18.4 mphLight Drizzle
7:00 AM50.0 °F48.0 °F91 %29.86 in6.0 miSW (220°)20.7 mphRainLight Rain
7:00 AM50.0 °F48.2 °F94 %29.83 in6.2 miSW (220°)20.7 mphOvercast
7:30 AM50.0 °F48.2 °F94 %29.83 in3.1 miSW (220°)18.4 mphRainLight Rain
8:00 AM50.0 °F48.2 °F94 %29.83 in6.2 miSW (230°)19.6 mphRainLight Rain
8:30 AM50.0 °F48.2 °F94 %29.86 in4.3 miSW (230°)18.4 mphRainLight Rain
9:00 AM50.0 °F48.2 °F94 %29.86 in5.0 miSW (220°)19.6 mphRainLight Rain
9:30 AM50.0 °F48.2 °F94 %29.86 in5.6 miSW (230°)19.6 mphRainLight Rain
10:00 AM50.0 °F48.2 °F94 %29.86 in6.2 miSW (230°)17.3 mphRainLight Rain
10:30 AM51.8 °F48.2 °F88 %29.86 in6.2 miSW (220°)18.4 mphOvercast
11:00 AM51.8 °F48.2 °F88 %29.86 in6.2 miSW (230°)19.6 mphOvercast
11:30 AM51.8 °F48.2 °F88 %29.86 in6.2 miSW (230°)20.7 mphOvercast
12:00 PM51.8 °F48.2 °F88 %29.89 in4.3 miSW (230°)16.1 mphRainLight Rain
12:30 PM51.8 °F48.2 °F88 %29.89 in4.3 miSW (220°)16.1 mphRainLight Rain
1:00 PM51.0 °F49.0 °F92 %29.90 in10.0 miSW (220°)16.1 mphRainLight Rain
1:00 PM51.8 °F50.0 °F94 %29.89 in6.2 miSW (220°)15.0 mphOvercast
1:30 PM51.8 °F50.0 °F94 %29.89 in6.2 miSW (230°)15.0 mphOvercast
2:00 PM53.6 °F50.0 °F88 %29.89 in6.2 miWSW (240°)16.1 mphOvercast
2:30 PM53.6 °F50.0 °F88 %29.89 in6.2 miWSW (240°)19.6 mphOvercast
3:00 PM53.6 °F51.8 °F94 %29.89 in6.2 miSW (230°)16.1 mphOvercast
3:30 PM53.6 °F51.8 °F94 %29.89 in6.2 miSW (230°)15.0 mphOvercast
4:00 PM55.4 °F51.8 °F88 %29.89 in6.2 miSW (230°)18.4 mphOvercast
4:30 PM55.4 °F51.8 °F88 %29.89 in6.2 miSW (220°)19.6 mphOvercast
5:00 PM55.4 °F50.0 °F82 %29.86 in6.2 miSW (220°)18.4 mphOvercast
5:30 PM53.6 °F51.8 °F94 %29.89 in6.2 miSW (220°)17.3 mphLight Drizzle
6:00 PM53.6 °F51.8 °F94 %29.89 in6.2 miSSW (210°)17.3 mphOvercast
6:30 PM55.4 °F51.8 °F88 %29.89 in6.2 miSW (230°)19.6 mphOvercast
7:00 PM55.0 °F52.0 °F84 %29.91 in4.0 miSW (230°)19.6 mphRainLight Drizzle
7:00 PM55.4 °F51.8 °F88 %29.89 in4.3 miSW (230°)20.7 mphLight Drizzle
7:30 PM55.4 °F51.8 °F88 %29.89 in6.2 miSW (230°)17.3 mphOvercast
8:00 PM55.4 °F51.8 °F88 %29.89 in6.2 miSW (230°)20.7 mphOvercast
8:30 PM55.4 °F50.0 °F82 %29.89 in6.2 miSW (230°)19.6 mphOvercast
9:00 PM53.6 °F50.0 °F88 %29.89 in6.2 miSW (230°)19.6 mph31.1 mphRainLight Rain
9:30 PM55.4 °F50.0 °F82 %29.89 in6.2 miSW (230°)19.6 mphOvercast
10:00 PM53.6 °F50.0 °F88 %29.89 in6.2 miSW (230°)20.7 mphOvercast
10:30 PM53.6 °F50.0 °F88 %29.89 in6.2 miSW (230°)24.2 mphOvercast
11:00 PM53.6 °F50.0 °F88 %29.86 in6.2 miSW (220°)24.2 mphOvercast
11:30 PM53.6 °F50.0 °F88 %29.86 in6.2 miSW (220°)21.9 mphOvercast
Hourly data recorded from LFOP, located miles away from Oissel, France







STORIES FROM OUR PARTNERS